Portada
METAR-TAF:

METAR-TAF

Aeroports :

Mora Municipal Airport

Mora, Minnesota, Estats Units d'Amèrica

latitud: 45-53-10N, longitud: 093-16-18W, altitud: 309 m

Observació

L'informe es va fer fa 22 minuts, a les 11:57 UTC
Vent 4 kt del Oest
Temperatura 2°C
Humitat 80%
Pressió 1013 hPa
Visibilitat: 16.1 km
Cel clar

METAR: KJMR 161157Z AUTO 26004KT 10SM CLR 02/M01 A2990 RMK AO2

Hora: 07:19 (12:19 UTC)


TAF: manca

Observacions i pronòstics meteorològics de més de 4000 aeroports (METAR i TAF).

Les estacions disponibles són els punts grocs i vermells al mapa.

Posi el ratolí al punt desitjat per veure el nom de l'estació.

Feu clic per veure les observacions i els pronòstics meteorològics.

Per canviar el mapa: feu clic els botons verds amb una creu de color negre per apropar; al botó verd amb un guió per allunyar la imatge; o en les fletxes verdes per a mapes adjacents.


METAR-TAF: